Regional Weather Roundup
Issued by NWS

Home | Current Version | Previous Version | Text Only | Print | Product List | Glossary On
Versions: 1 2 3 4 5 6 7 8 9 10 11 12 13 14 15 16 17 18 19 20 21 22 23 24 25 26 27 28 29 30 31 32 33 34 35 36 37 38 39 40 41 42 43 44 45 46 47 48 49 50
000
ASUS43 KTOP 291359
RWRKS

WEATHER ROUNDUP FOR KANSAS
NATIONAL WEATHER SERVICE GOODLAND KS
900 AM CDT FRI JUL 29 2016

NOTE:  "FAIR" INDICATES FEW OR NO CLOUDS BELOW 12,000 FEET WITH NO
SIGNIFICANT WEATHER AND/OR OBSTRUCTIONS TO VISIBILITY.

KSZ001>006-013>018-027>032-041>047-291500-
NORTHWEST KANSAS

CITY           SKY/WX    TMP DP  RH WIND       PRES   REMARKS
GOODLAND       CLOUDY    67  62  84 NE3       30.16R
HAYS           CLOUDY    70  61  73 CALM      30.09R
HILL CITY      PTSUNNY   69  64  84 NE5       30.10S
RUSSELL        PTSUNNY   70  68  93 N6        30.07S
$$

KSZ061>065-074>080-084>089-291500-
SOUTHWEST KANSAS

CITY           SKY/WX    TMP DP  RH WIND       PRES   REMARKS
DODGE CITY     MOSUNNY   70  65  84 NE14      30.09R
ELKHART          N/A     65  61  87 N6          N/A
GARDEN CITY    SUNNY     69  63  81 E6        30.10R
GREAT BEND     CLOUDY    70  61  73 CALM      30.09R
LIBERAL        MOSUNNY   68  63  83 E9        30.12R
$$

KSZ066>073-081>083-090>101-291500-
SOUTHEAST KANSAS

CITY           SKY/WX    TMP DP  RH WIND       PRES   REMARKS
CHANUTE        CLOUDY    71  68  90 NW7       30.02R
COFFEYVILLE    PTSUNNY   71  69  93 N3        30.00S
HUTCHINSON     CLOUDY    71  67  87 SE3       30.07F
NEWTON         CLOUDY    68  67  96 CALM      30.08S
PARSONS        CLOUDY    71  68  90 NW6       30.03R
WICHITA INTL   CLOUDY    70  67  90 N6        30.06F
WICHITA JABRA  LGT RAIN  70  69  97 NW6       30.07S
WINFIELD       CLOUDY    68  65  90 SW12      30.04F
$$

KSZ007>012-019>026-033>040-048>060-102>105-291500-
NORTHEAST KANSAS

CITY           SKY/WX    TMP DP  RH WIND       PRES   REMARKS
CONCORDIA      MOSUNNY   71  66  84 NE5       30.07R
EMPORIA        CLOUDY    69  68  96 W5        30.05R
LAWRENCE       PTSUNNY   72  66  81 N8        30.02R
MANHATTAN      MOSUNNY   73  68  83 CALM      30.03F
OLATHE IND     CLOUDY    72  68  87 N6        30.02S
OLATHE EXE     CLOUDY    72  66  81 NE6       30.02R
SALINA         PTSUNNY   74  68  81 N3        30.05S
TOPEKA BILLARD CLOUDY    73  68  84 NE7       30.03R
TOPEKA FORBES  CLOUDY    73  68  84 NE7       30.03R
$$



USA.gov is the U.S. government's official web portal to all federal, state and local government web resources and services.